,,Stat6,,Stat2,,Stat8,,Stat9,,Stat10,,Wind1,,Wind1,
time,status,PA1M_AVG,status,PR1M_SUM,status,RH1M_AVG,status,SR1M_AVG,status,TA1M_AVG,status,W1dAve1m,status,W1sAve1m,
2005-03-30, 00:00:01,VALID,918.928,VALID,0,VALID,100,VALID,0.0169808,VALID,19.7581,VALID,352,VALID,0.905342,
2005-03-30, 00:01:01,VALID,918.93,VALID,0,VALID,99.9954,VALID,0,VALID,19.7382,VALID,351,VALID,0.67934,
2005-03-30, 00:02:01,VALID,918.919,VALID,0,VALID,100,VALID,0.0509425,VALID,19.7444,VALID,348,VALID,0.622452,
2005-03-30, 00:03:01,VALID,918.929,VALID,0,VALID,100,VALID,0,VALID,19.7449,VALID,348,VALID,0.636896,
2005-03-30, 00:04:01,VALID,918.923,VALID,0,VALID,100,VALID,0,VALID,19.7382,VALID,343,VALID,0.346799,
2005-03-30, 00:05:01,VALID,918.909,VALID,0,VALID,99.9941,VALID,0,VALID,19.7517,VALID,344,VALID,0.445313,
2005-03-30, 00:06:00,VALID,918.899,VALID,0,VALID,99.8884,VALID,0,VALID,19.7449,VALID,355,VALID,0.676962,
2005-03-30, 00:07:00,VALID,918.893,VALID,0,VALID,99.8731,VALID,0.0169808,VALID,19.7385,VALID,5,VALID,0.804688,
2005-03-30, 00:08:00,VALID,918.87,VALID,0,VALID,99.972,VALID,0.0169808,VALID,19.7646,VALID,10,VALID,0.817894,
2005-03-30, 00:09:00,VALID,918.866,VALID,0,VALID,99.8044,VALID,0,VALID,19.7611,VALID,8,VALID,1.04855,
2005-03-30, 00:10:00,VALID,918.855,VALID,0,VALID,99.69,VALID,0,VALID,19.7551,VALID,356,VALID,0.95484,
2005-03-30, 00:11:00,VALID,918.83,VALID,0,VALID,99.517,VALID,-0.0169808,VALID,19.7524,VALID,348,VALID,0.745206,
2005-03-30, 00:12:00,VALID,918.827,VALID,0,VALID,99.5043,VALID,-0.0169808,VALID,19.7521,VALID,337,VALID,0.790879,
2005-03-30, 00:13:00,VALID,918.81,VALID,0,VALID,99.6315,VALID,0,VALID,19.7589,VALID,13,VALID,0.656605,
2005-03-30, 00:14:00,VALID,918.793,VALID,0,VALID,99.8744,VALID,0,VALID,19.7675,VALID,3,VALID,0.482376,
2005-03-30, 00:15:00,VALID,918.775,VALID,0,VALID,99.9621,VALID,0,VALID,19.8075,VALID,6,VALID,0.504836,
2005-03-30, 00:16:00,VALID,918.757,VALID,0,VALID,99.7866,VALID,0,VALID,19.778,VALID,328,VALID,0.614901,
2005-03-30, 00:17:00,VALID,918.751,VALID,0,VALID,99.7459,VALID,-0.0169808,VALID,19.7713,VALID,327,VALID,0.360938,
2005-03-30, 00:18:00,VALID,918.726,VALID,0,VALID,99.8604,VALID,0,VALID,19.7807,VALID,333,VALID,0.228161,
2005-03-30, 00:19:00,VALID,918.71,VALID,0,VALID,99.9756,VALID,0.0169808,VALID,19.7899,VALID,6,VALID,0.659091,
2005-03-30, 00:20:00,VALID,918.691,VALID,0,VALID,99.793,VALID,0,VALID,19.7807,VALID,347,VALID,0.594131,
2005-03-30, 00:21:00,VALID,918.69,VALID,0,VALID,99.6989,VALID,0,VALID,19.768,VALID,348,VALID,0.301054,
2005-03-30, 00:22:00,VALID,918.684,VALID,0.2,VALID,99.7726,VALID,0,VALID,19.7805,VALID,348,VALID,0.195117,
2005-03-30, 00:23:00,VALID,918.667,VALID,0,VALID,99.7574,VALID,-0.0169808,VALID,19.7743,VALID,348,VALID,0.0401786,
2005-03-30, 00:24:00,VALID,918.663,VALID,0,VALID,99.7625,VALID,0,VALID,19.7708,VALID,348,VALID,0.158249,
2005-03-30, 00:25:00,VALID,918.658,VALID,0,VALID,99.5704,VALID,0,VALID,19.7611,VALID,348,VALID,0.00279018,
2005-03-30, 00:26:00,VALID,918.644,VALID,0,VALID,99.5755,VALID,0.0169808,VALID,19.7556,VALID,348,VALID,0,
2005-03-30, 00:27:00,VALID,918.627,VALID,0,VALID,99.6099,VALID,0,VALID,19.742,VALID,348,VALID,0.0574777,
2005-03-30, 00:28:00,VALID,918.626,VALID,0,VALID,99.5501,VALID,0,VALID,19.7385,VALID,348,VALID,0,
2005-03-30, 00:29:00,VALID,918.606,VALID,0,VALID,99.5336,VALID,0,VALID,19.7392,VALID,348,VALID,0.0900298,
2005-03-30, 00:30:00,VALID,918.585,VALID,0,VALID,99.723,VALID,0,VALID,19.7613,VALID,348,VALID,0,
2005-03-30, 00:31:00,VALID,918.576,VALID,0,VALID,99.6099,VALID,-0.0169808,VALID,19.7648,VALID,348,VALID,0.00090843,
2005-03-30, 00:32:00,VALID,918.552,VALID,0,VALID,99.5933,VALID,0,VALID,19.7546,VALID,348,VALID,0,
2005-03-30, 00:33:00,VALID,918.528,VALID,0,VALID,99.6963,VALID,0.0169808,VALID,19.771,VALID,348,VALID,0,
2005-03-30, 00:34:00,VALID,918.51,VALID,0,VALID,99.7854,VALID,-0.101885,VALID,19.7916,VALID,348,VALID,0,
2005-03-30, 00:35:00,VALID,918.482,VALID,0,VALID,99.8782,VALID,-0.118866,VALID,19.811,VALID,348,VALID,0,
2005-03-30, 00:36:00,VALID,918.456,VALID,0,VALID,99.7981,VALID,-0.101885,VALID,19.8177,VALID,347,VALID,0.0754616,
2005-03-30, 00:37:00,VALID,918.447,VALID,0,VALID,99.7625,VALID,-0.101885,VALID,19.8147,VALID,347,VALID,0.101042,
2005-03-30, 00:38:00,VALID,918.419,VALID,0,VALID,99.6989,VALID,-0.118866,VALID,19.8046,VALID,347,VALID,0.289263,
2005-03-30, 00:39:00,VALID,918.408,VALID,0,VALID,99.5374,VALID,-0.101885,VALID,19.7951,VALID,347,VALID,0.181141,
2005-03-30, 00:40:00,VALID,918.379,VALID,0,VALID,99.6684,VALID,-0.101885,VALID,19.8013,VALID,347,VALID,0.0941134,
2005-03-30, 00:41:00,VALID,918.36,VALID,0,VALID,99.7917,VALID,-0.0679233,VALID,19.808,VALID,347,VALID,0,
2005-03-30, 00:42:00,VALID,918.343,VALID,0,VALID,99.6315,VALID,-0.101885,VALID,19.7782,VALID,347,VALID,0,
2005-03-30, 00:43:00,VALID,918.311,VALID,0,VALID,99.6061,VALID,-0.101885,VALID,19.7688,VALID,347,VALID,0.0243902,
2005-03-30, 00:44:00,VALID,918.275,VALID,0,VALID,99.7548,VALID,-0.135847,VALID,19.7693,VALID,350,VALID,0.355283,
2005-03-30, 00:45:00,VALID,918.257,VALID,0,VALID,99.9542,VALID,-0.0849042,VALID,19.8016,VALID,356,VALID,0.338356,
2005-03-30, 00:46:00,VALID,918.237,VALID,0,VALID,99.9977,VALID,-0.0849042,VALID,19.7981,VALID,356,VALID,0.0623264,
2005-03-30, 00:47:00,VALID,918.208,VALID,0,VALID,99.9252,VALID,-0.0849042,VALID,19.7723,VALID,356,VALID,0,
2005-03-30, 00:48:00,VALID,918.187,VALID,0,VALID,99.9591,VALID,-0.0679233,VALID,19.7755,VALID,356,VALID,0.188519,
2005-03-30, 00:49:00,VALID,918.155,VALID,0,VALID,100,VALID,-0.0509425,VALID,19.7882,VALID,356,VALID,0.327744,
2005-03-30, 00:50:00,VALID,918.149,VALID,0,VALID,100,VALID,-0.0849042,VALID,19.7884,VALID,356,VALID,0.514063,
2005-03-30, 00:51:00,VALID,918.131,VALID,0,VALID,100,VALID,-0.0849042,VALID,19.7757,VALID,356,VALID,0.521875,
2005-03-30, 00:52:00,VALID,918.113,VALID,0,VALID,100,VALID,-0.0679233,VALID,19.7827,VALID,15,VALID,0.735085,
2005-03-30, 00:53:00,VALID,918.091,VALID,0,VALID,100,VALID,-0.118866,VALID,19.7854,VALID,30,VALID,0.907393,
2005-03-30, 00:54:00,VALID,918.072,VALID,0,VALID,100,VALID,-0.0679233,VALID,19.7887,VALID,26,VALID,0.756541,
2005-03-30, 00:55:00,VALID,918.05,VALID,0,VALID,100,VALID,-0.0849042,VALID,19.7849,VALID,13,VALID,0.618304,
2005-03-30, 00:56:00,VALID,918.018,VALID,0,VALID,100,VALID,-0.0849042,VALID,19.7854,VALID,13,VALID,0.489139,
2005-03-30, 00:57:00,VALID,917.99,VALID,0,VALID,100,VALID,-0.101885,VALID,19.7887,VALID,13,VALID,0.428163,
2005-03-30, 00:58:00,VALID,917.957,VALID,0,VALID,100,VALID,-0.0849042,VALID,19.7892,VALID,11,VALID,0.588405,
2005-03-30, 00:59:00,VALID,917.918,VALID,0,VALID,100,VALID,-0.101885,VALID,19.7825,VALID,12,VALID,0.578299,
2005-03-30, 01:00:00,VALID,917.903,VALID,0,VALID,100,VALID,-0.0509425,VALID,19.7825,VALID,13,VALID,0.2,
2005-03-30, 01:01:00,VALID,917.888,VALID,0,VALID,100,VALID,-0.0339617,VALID,19.7435,VALID,13,VALID,0.138542,
2005-03-30, 01:02:00,VALID,917.842,VALID,0,VALID,100,VALID,-0.0849042,VALID,19.7405,VALID,13,VALID,0.0782986,
2005-03-30, 01:03:00,VALID,917.811,VALID,0,VALID,100,VALID,-0.0509425,VALID,19.7243,VALID,13,VALID,0.0300347,
2005-03-30, 01:04:00,VALID,917.779,VALID,0,VALID,100,VALID,-0.0679233,VALID,19.7141,VALID,13,VALID,0.00558036,
2005-03-30, 01:05:00,VALID,917.745,VALID,0,VALID,100,VALID,-0.0849042,VALID,19.7206,VALID,13,VALID,0,
2005-03-30, 01:06:00,VALID,917.708,VALID,0,VALID,100,VALID,-0.0849042,VALID,19.7308,VALID,13,VALID,0.0404514,
2005-03-30, 01:07:00,VALID,917.685,VALID,0,VALID,100,VALID,-0.101885,VALID,19.7372,VALID,13,VALID,0.0712426,
2005-03-30, 01:08:00,VALID,917.662,VALID,0,VALID,100,VALID,-0.101885,VALID,19.7402,VALID,13,VALID,0.224382,
2005-03-30, 01:09:00,VALID,917.655,VALID,0,VALID,100,VALID,-0.101885,VALID,19.7243,VALID,13,VALID,0.488281,
2005-03-30, 01:10:00,VALID,917.625,VALID,0,VALID,100,VALID,-0.101885,VALID,19.705,VALID,3,VALID,0.653045,
2005-03-30, 01:11:00,VALID,917.618,VALID,0,VALID,100,VALID,-0.101885,VALID,19.663,VALID,3,VALID,0.523237,
2005-03-30, 01:12:00,VALID,917.589,VALID,0,VALID,100,VALID,-0.101885,VALID,19.6473,VALID,1,VALID,0.416481,
2005-03-30, 01:13:00,VALID,917.558,VALID,0,VALID,100,VALID,-0.101885,VALID,19.6339,VALID,1,VALID,0.461107,
2005-03-30, 01:14:00,VALID,917.536,VALID,0,VALID,100,VALID,-0.101885,VALID,19.6374,VALID,1,VALID,0.403161,
2005-03-30, 01:15:00,VALID,917.518,VALID,0,VALID,100,VALID,-0.101885,VALID,19.6337,VALID,21,VALID,0.558398,
2005-03-30, 01:16:00,VALID,917.498,VALID,0,VALID,100,VALID,-0.101885,VALID,19.6053,VALID,353,VALID,0.568164,
2005-03-30, 01:17:00,VALID,917.482,VALID,0,VALID,100,VALID,-0.101885,VALID,19.5788,VALID,351,VALID,0.124256,
2005-03-30, 01:18:00,VALID,917.464,VALID,0,VALID,100,VALID,-0.101885,VALID,19.5723,VALID,352,VALID,0.358467,
2005-03-30, 01:19:00,VALID,917.451,VALID,0,VALID,100,VALID,-0.0169808,VALID,19.5522,VALID,352,VALID,0.210352,
2005-03-30, 01:20:00,VALID,917.424,VALID,0,VALID,100,VALID,0,VALID,19.545,VALID,352,VALID,0.296113,
2005-03-30, 01:21:00,VALID,917.406,VALID,0,VALID,100,VALID,-0.0339617,VALID,19.5587,VALID,25,VALID,0.502544,
2005-03-30, 01:22:00,VALID,917.416,VALID,0,VALID,100,VALID,0,VALID,19.5651,VALID,21,VALID,0.598238,
2005-03-30, 01:23:00,VALID,917.406,VALID,0,VALID,100,VALID,0,VALID,19.5651,VALID,1,VALID,0.6121,
2005-03-30, 01:24:00,VALID,917.383,VALID,0,VALID,100,VALID,0,VALID,19.549,VALID,358,VALID,0.618229,
2005-03-30, 01:25:00,VALID,917.368,VALID,0,VALID,100,VALID,0,VALID,19.5386,VALID,358,VALID,0.239702,
2005-03-30, 01:26:00,VALID,917.355,VALID,0,VALID,100,VALID,0,VALID,19.5527,VALID,12,VALID,0.909091,
2005-03-30, 01:27:00,VALID,917.345,VALID,0,VALID,100,VALID,0.0169808,VALID,19.5224,VALID,11,VALID,0.789608,
2005-03-30, 01:28:00,VALID,917.325,VALID,0,VALID,100,VALID,0,VALID,19.5227,VALID,21,VALID,0.849559,
2005-03-30, 01:29:00,VALID,917.306,VALID,0,VALID,100,VALID,0.0339617,VALID,19.5164,VALID,3,VALID,0.73492,
2005-03-30, 01:30:00,VALID,917.291,VALID,0,VALID,100,VALID,0.0169808,VALID,19.5229,VALID,5,VALID,0.48952,
2005-03-30, 01:31:00,VALID,917.272,VALID,0,VALID,100,VALID,0,VALID,19.5291,VALID,357,VALID,0.615699,
2005-03-30, 01:32:00,VALID,917.244,VALID,0,VALID,100,VALID,0.0169808,VALID,19.513,VALID,354,VALID,0.633984,
2005-03-30, 01:33:00,VALID,917.223,VALID,0,VALID,100,VALID,0,VALID,19.513,VALID,4,VALID,0.356076,
2005-03-30, 01:34:00,VALID,917.199,VALID,0,VALID,100,VALID,0,VALID,19.5266,VALID,9,VALID,0.308966,
2005-03-30, 01:35:00,VALID,917.18,VALID,0,VALID,100,VALID,0.0169808,VALID,19.5227,VALID,9,VALID,0.120094,
2005-03-30, 01:36:00,VALID,917.143,VALID,0,VALID,100,VALID,0,VALID,19.5294,VALID,9,VALID,0.224746,
2005-03-30, 01:37:00,VALID,917.116,VALID,0,VALID,100,VALID,0,VALID,19.5423,VALID,9,VALID,0.0646802,
2005-03-30, 01:38:00,VALID,917.101,VALID,0,VALID,100,VALID,-0.0169808,VALID,19.5614,VALID,9,VALID,0.137747,
2005-03-30, 01:39:00,VALID,917.073,VALID,0,VALID,100,VALID,-0.0169808,VALID,19.5455,VALID,9,VALID,0,
2005-03-30, 01:40:00,VALID,917.06,VALID,0,VALID,100,VALID,0,VALID,19.5356,VALID,9,VALID,0,
2005-03-30, 01:41:00,VALID,917.059,VALID,0,VALID,100,VALID,0.0169808,VALID,19.5356,VALID,9,VALID,0.149219,
2005-03-30, 01:42:00,VALID,917.035,VALID,0,VALID,100,VALID,0,VALID,19.5358,VALID,9,VALID,0.143674,
2005-03-30, 01:43:00,VALID,917.023,VALID,0,VALID,100,VALID,-0.0169808,VALID,19.5164,VALID,9,VALID,0.0137195,
2005-03-30, 01:44:00,VALID,917.007,VALID,0,VALID,100,VALID,0,VALID,19.5294,VALID,9,VALID,0.00381098,
2005-03-30, 01:45:00,VALID,916.987,VALID,0,VALID,100,VALID,0,VALID,19.5192,VALID,9,VALID,0,
2005-03-30, 01:46:00,VALID,916.961,VALID,0,VALID,100,VALID,0,VALID,19.5167,VALID,9,VALID,0,
2005-03-30, 01:47:00,VALID,916.937,VALID,0,VALID,100,VALID,0,VALID,19.5199,VALID,9,VALID,0,
2005-03-30, 01:48:00,VALID,916.914,VALID,0,VALID,100,VALID,0,VALID,19.5296,VALID,9,VALID,0,
2005-03-30, 01:49:00,VALID,916.88,VALID,0,VALID,100,VALID,0,VALID,19.5425,VALID,9,VALID,0.109896,
2005-03-30, 01:50:00,VALID,916.852,VALID,0,VALID,100,VALID,0,VALID,19.5393,VALID,9,VALID,0.198103,
2005-03-30, 01:51:00,VALID,916.83,VALID,0.2,VALID,100,VALID,0.0169808,VALID,19.5462,VALID,9,VALID,0.0139509,
2005-03-30, 01:52:00,VALID,916.8,VALID,0,VALID,100,VALID,0.0169808,VALID,19.5649,VALID,9,VALID,0.0146723,
2005-03-30, 01:53:00,VALID,916.785,VALID,0,VALID,100,VALID,0.0169808,VALID,19.5515,VALID,9,VALID,0.0504092,
2005-03-30, 01:54:00,VALID,916.751,VALID,0,VALID,100,VALID,0.0169808,VALID,19.5708,VALID,9,VALID,0,
2005-03-30, 01:55:00,VALID,916.744,VALID,0,VALID,100,VALID,0.0339617,VALID,19.5679,VALID,9,VALID,0.00111607,
2005-03-30, 01:56:00,VALID,916.734,VALID,0,VALID,100,VALID,0.0169808,VALID,19.5641,VALID,9,VALID,0.0171494,
2005-03-30, 01:57:00,VALID,916.724,VALID,0,VALID,100,VALID,0.0339617,VALID,19.5813,VALID,9,VALID,0.00351562,
2005-03-30, 01:58:00,VALID,916.71,VALID,0,VALID,100,VALID,0.0339617,VALID,19.5967,VALID,9,VALID,0.0135417,
2005-03-30, 01:59:00,VALID,916.7,VALID,0,VALID,100,VALID,0,VALID,19.6297,VALID,9,VALID,0.207031,
2005-03-30, 02:00:00,VALID,916.689,VALID,0,VALID,100,VALID,0.0169808,VALID,19.6285,VALID,9,VALID,0.340021,
2005-03-30, 02:01:00,VALID,916.684,VALID,0,VALID,100,VALID,0,VALID,19.6257,VALID,9,VALID,0.31032,
2005-03-30, 02:02:00,VALID,916.673,VALID,0,VALID,100,VALID,0.0169808,VALID,19.6093,VALID,9,VALID,0.255814,
2005-03-30, 02:03:00,VALID,916.664,VALID,0,VALID,100,VALID,0.0339617,VALID,19.623,VALID,9,VALID,0.162534,
2005-03-30, 02:04:00,VALID,916.669,VALID,0,VALID,100,VALID,0.0339617,VALID,19.6034,VALID,9,VALID,0.209239,
2005-03-30, 02:05:00,VALID,916.675,VALID,0,VALID,100,VALID,0.0169808,VALID,19.5711,VALID,9,VALID,0.09375,
2005-03-30, 02:06:00,VALID,916.67,VALID,0,VALID,100,VALID,0,VALID,19.5512,VALID,9,VALID,0.0826172,
2005-03-30, 02:07:00,VALID,916.668,VALID,0,VALID,100,VALID,0.0169808,VALID,19.5448,VALID,9,VALID,0.294212,
2005-03-30, 02:08:00,VALID,916.647,VALID,0,VALID,100,VALID,0.0169808,VALID,19.5291,VALID,9,VALID,0.147321,
2005-03-30, 02:09:00,VALID,916.632,VALID,0,VALID,100,VALID,0,VALID,19.5164,VALID,9,VALID,0.334302,
2005-03-30, 02:10:00,VALID,916.63,VALID,0,VALID,100,VALID,0,VALID,19.507,VALID,9,VALID,0.294398,
2005-03-30, 02:11:00,VALID,916.606,VALID,0,VALID,100,VALID,0.0169808,VALID,19.5033,VALID,9,VALID,0.0777616,
2005-03-30, 02:12:00,VALID,916.603,VALID,0,VALID,100,VALID,0,VALID,19.5001,VALID,9,VALID,0.138393,
2005-03-30, 02:13:00,VALID,916.601,VALID,0,VALID,100,VALID,0.0509425,VALID,19.4901,VALID,9,VALID,0.0579579,
2005-03-30, 02:14:00,VALID,916.588,VALID,0,VALID,100,VALID,0.0169808,VALID,19.5097,VALID,9,VALID,0.0578835,
2005-03-30, 02:15:00,VALID,916.563,VALID,0,VALID,100,VALID,0.0509425,VALID,19.4934,VALID,9,VALID,0.0458333,
2005-03-30, 02:16:00,VALID,916.55,VALID,0,VALID,100,VALID,0.0169808,VALID,19.4832,VALID,9,VALID,0,
2005-03-30, 02:17:00,VALID,916.547,VALID,0,VALID,100,VALID,0.0169808,VALID,19.477,VALID,9,VALID,0,
2005-03-30, 02:18:00,VALID,916.526,VALID,0,VALID,100,VALID,0.0169808,VALID,19.4839,VALID,9,VALID,0.087466,
2005-03-30, 02:19:00,VALID,916.526,VALID,0,VALID,100,VALID,-0.0509425,VALID,19.4859,VALID,4,VALID,0.332775,
2005-03-30, 02:20:00,VALID,916.509,VALID,0,VALID,100,VALID,-0.0679233,VALID,19.4722,VALID,357,VALID,0.279204,
2005-03-30, 02:21:00,VALID,916.516,VALID,0,VALID,100,VALID,-0.101885,VALID,19.4432,VALID,357,VALID,0.255996,
2005-03-30, 02:22:00,VALID,916.515,VALID,0,VALID,100,VALID,-0.101885,VALID,19.4501,VALID,357,VALID,0.0739462,
2005-03-30, 02:23:00,VALID,916.51,VALID,0,VALID,100,VALID,-0.101885,VALID,19.4529,VALID,357,VALID,0.0119048,
2005-03-30, 02:24:00,VALID,916.512,VALID,0,VALID,100,VALID,-0.0849042,VALID,19.4593,VALID,357,VALID,0,
2005-03-30, 02:25:00,VALID,916.51,VALID,0,VALID,100,VALID,-0.0849042,VALID,19.4663,VALID,357,VALID,0.0490057,
2005-03-30, 02:26:00,VALID,916.497,VALID,0,VALID,100,VALID,-0.0679233,VALID,19.4727,VALID,357,VALID,0.0642578,
2005-03-30, 02:27:00,VALID,916.506,VALID,0,VALID,100,VALID,-0.0849042,VALID,19.4951,VALID,357,VALID,0.323847,
2005-03-30, 02:28:00,VALID,916.504,VALID,0,VALID,100,VALID,-0.101885,VALID,19.5045,VALID,357,VALID,0.210029,
2005-03-30, 02:29:00,VALID,916.5,VALID,0,VALID,100,VALID,-0.0679233,VALID,19.5107,VALID,357,VALID,0.0715554,
2005-03-30, 02:30:00,VALID,916.489,VALID,0,VALID,100,VALID,-0.101885,VALID,19.5077,VALID,357,VALID,0.108173,
2005-03-30, 02:31:00,VALID,916.472,VALID,0,VALID,100,VALID,-0.0509425,VALID,19.5177,VALID,357,VALID,0.0362847,
2005-03-30, 02:32:00,VALID,916.467,VALID,0,VALID,100,VALID,-0.0679233,VALID,19.5207,VALID,357,VALID,0.105378,
2005-03-30, 02:33:00,VALID,916.463,VALID,0,VALID,100,VALID,-0.0849042,VALID,19.5075,VALID,357,VALID,0.122743,
2005-03-30, 02:34:00,VALID,916.456,VALID,0,VALID,100,VALID,0,VALID,19.506,VALID,357,VALID,0.0837054,
2005-03-30, 02:35:00,VALID,916.45,VALID,0,VALID,100,VALID,0.0169808,VALID,19.5192,VALID,357,VALID,0.179506,
2005-03-30, 02:36:00,VALID,916.462,VALID,0,VALID,100,VALID,0.0169808,VALID,19.5323,VALID,357,VALID,0.00223214,
2005-03-30, 02:37:00,VALID,916.449,VALID,0,VALID,100,VALID,0,VALID,19.5457,VALID,357,VALID,0.00223214,
2005-03-30, 02:38:00,VALID,916.465,VALID,0,VALID,100,VALID,0,VALID,19.5455,VALID,357,VALID,0.0345982,
2005-03-30, 02:39:00,VALID,916.46,VALID,0,VALID,100,VALID,0,VALID,19.5321,VALID,357,VALID,0.238186,
2005-03-30, 02:40:00,VALID,916.46,VALID,0,VALID,100,VALID,0.0169808,VALID,19.5197,VALID,357,VALID,0.240282,
2005-03-30, 02:41:00,VALID,916.451,VALID,0,VALID,100,VALID,0.0339617,VALID,19.5361,VALID,357,VALID,0.452172,
2005-03-30, 02:42:00,VALID,916.448,VALID,0,VALID,100,VALID,0,VALID,19.5254,VALID,357,VALID,0.47904,
2005-03-30, 02:43:00,VALID,916.441,VALID,0,VALID,100,VALID,0,VALID,19.5428,VALID,357,VALID,0.349848,
2005-03-30, 02:44:00,VALID,916.439,VALID,0,VALID,100,VALID,0,VALID,19.5192,VALID,357,VALID,0.443403,
2005-03-30, 02:45:00,VALID,916.426,VALID,0,VALID,100,VALID,0.0169808,VALID,19.5395,VALID,357,VALID,0.400868,
2005-03-30, 02:46:00,VALID,916.417,VALID,0,VALID,100,VALID,0,VALID,19.5127,VALID,357,VALID,0.505729,
2005-03-30, 02:47:00,VALID,916.419,VALID,0,VALID,100,VALID,0.0339617,VALID,19.506,VALID,357,VALID,0.427827,
2005-03-30, 02:48:00,VALID,916.425,VALID,0,VALID,100,VALID,0,VALID,19.513,VALID,357,VALID,0.266513,
2005-03-30, 02:49:00,VALID,916.421,VALID,0,VALID,100,VALID,-0.0679233,VALID,19.5048,VALID,356,VALID,0.528201,
2005-03-30, 02:50:00,VALID,916.413,VALID,0,VALID,100,VALID,-0.101885,VALID,19.5023,VALID,355,VALID,0.604725,
2005-03-30, 02:51:00,VALID,916.414,VALID,0,VALID,100,VALID,-0.101885,VALID,19.509,VALID,354,VALID,0.53776,
2005-03-30, 02:52:00,VALID,916.402,VALID,0,VALID,100,VALID,-0.101885,VALID,19.4988,VALID,346,VALID,0.549162,
2005-03-30, 02:53:00,VALID,916.421,VALID,0,VALID,100,VALID,-0.0849042,VALID,19.4886,VALID,332,VALID,0.420967,
2005-03-30, 02:54:00,VALID,916.413,VALID,0,VALID,100,VALID,-0.0849042,VALID,19.5023,VALID,347,VALID,0.494048,
2005-03-30, 02:55:00,VALID,916.407,VALID,0,VALID,100,VALID,-0.101885,VALID,19.5018,VALID,26,VALID,0.545099,
2005-03-30, 02:56:00,VALID,916.404,VALID,0,VALID,100,VALID,-0.101885,VALID,19.5249,VALID,25,VALID,0.323219,
2005-03-30, 02:57:00,VALID,916.409,VALID,0,VALID,100,VALID,-0.101885,VALID,19.5241,VALID,24,VALID,0.250355,
2005-03-30, 02:58:00,VALID,916.41,VALID,0,VALID,100,VALID,-0.0849042,VALID,19.541,VALID,288,VALID,0.413862,
2005-03-30, 02:59:00,VALID,916.415,VALID,0,VALID,100,VALID,-0.0849042,VALID,19.5375,VALID,286,VALID,0.163881,
2005-03-30, 03:00:00,VALID,916.42,VALID,0,VALID,100,VALID,-0.0679233,VALID,19.5308,VALID,287,VALID,0.0168968,
2005-03-30, 03:01:00,VALID,916.426,VALID,0,VALID,100,VALID,-0.101885,VALID,19.5303,VALID,296,VALID,0.17133,
2005-03-30, 03:02:00,VALID,916.421,VALID,0,VALID,100,VALID,-0.0509425,VALID,19.5338,VALID,8,VALID,0.580412,
2005-03-30, 03:03:00,VALID,916.431,VALID,0,VALID,100,VALID,-0.0679233,VALID,19.5567,VALID,15,VALID,0.395597,
2005-03-30, 03:04:00,VALID,916.451,VALID,0,VALID,100,VALID,0.0339617,VALID,19.552,VALID,5,VALID,0.500953,
2005-03-30, 03:05:00,VALID,916.455,VALID,0,VALID,100,VALID,0.0339617,VALID,19.5552,VALID,4,VALID,0.601563,
2005-03-30, 03:06:00,VALID,916.48,VALID,0,VALID,100,VALID,0.0169808,VALID,19.5487,VALID,4,VALID,0.41867,
2005-03-30, 03:07:00,VALID,916.502,VALID,0,VALID,100,VALID,0,VALID,19.5554,VALID,2,VALID,0.747523,
2005-03-30, 03:08:00,VALID,916.513,VALID,0,VALID,100,VALID,0,VALID,19.5291,VALID,17,VALID,0.705221,
2005-03-30, 03:09:00,VALID,916.52,VALID,0,VALID,100,VALID,0.0169808,VALID,19.5356,VALID,25,VALID,0.338265,
2005-03-30, 03:10:00,VALID,916.536,VALID,0,VALID,100,VALID,0,VALID,19.5453,VALID,25,VALID,0.0390625,
2005-03-30, 03:11:00,VALID,916.535,VALID,0,VALID,100,VALID,0.0169808,VALID,19.5455,VALID,24,VALID,0.0823038,
2005-03-30, 03:12:00,VALID,916.537,VALID,0,VALID,100,VALID,0.0339617,VALID,19.5192,VALID,11,VALID,0.114099,
2005-03-30, 03:13:00,VALID,916.53,VALID,0,VALID,100,VALID,0,VALID,19.513,VALID,345,VALID,0.325174,
2005-03-30, 03:14:00,VALID,916.523,VALID,0,VALID,100,VALID,0,VALID,19.5001,VALID,296,VALID,0.223772,
2005-03-30, 03:15:00,VALID,916.511,VALID,0,VALID,100,VALID,0.0169808,VALID,19.5197,VALID,296,VALID,0.128405,
2005-03-30, 03:16:00,VALID,916.491,VALID,0,VALID,100,VALID,0,VALID,19.5197,VALID,296,VALID,0.080163,
2005-03-30, 03:17:00,VALID,916.484,VALID,0,VALID,100,VALID,0,VALID,19.5356,VALID,296,VALID,0.0377287,
2005-03-30, 03:18:00,VALID,916.475,VALID,0,VALID,100,VALID,0.0169808,VALID,19.5363,VALID,296,VALID,0.0572917,
2005-03-30, 03:19:00,VALID,916.468,VALID,0,VALID,100,VALID,0,VALID,19.5261,VALID,296,VALID,0.169141,
2005-03-30, 03:20:00,VALID,916.461,VALID,0,VALID,100,VALID,0,VALID,19.5234,VALID,296,VALID,0.245916,
2005-03-30, 03:21:00,VALID,916.469,VALID,0,VALID,100,VALID,-0.0169808,VALID,19.5299,VALID,296,VALID,0.0375744,
2005-03-30, 03:22:00,VALID,916.465,VALID,0,VALID,100,VALID,0,VALID,19.5197,VALID,296,VALID,0,
2005-03-30, 03:23:00,VALID,916.461,VALID,0,VALID,100,VALID,0.0169808,VALID,19.5261,VALID,296,VALID,0,
2005-03-30, 03:24:00,VALID,916.459,VALID,0,VALID,100,VALID,0.0339617,VALID,19.5356,VALID,296,VALID,0.191939,
2005-03-30, 03:25:00,VALID,916.449,VALID,0,VALID,100,VALID,0,VALID,19.5393,VALID,296,VALID,0.00218023,
2005-03-30, 03:26:00,VALID,916.431,VALID,0,VALID,100,VALID,0.0169808,VALID,19.5393,VALID,296,VALID,0.218559,
2005-03-30, 03:27:00,VALID,916.428,VALID,0,VALID,100,VALID,0.0169808,VALID,19.5584,VALID,296,VALID,0.227134,
2005-03-30, 03:28:00,VALID,916.406,VALID,0,VALID,100,VALID,0,VALID,19.5453,VALID,296,VALID,0.145894,
2005-03-30, 03:29:00,VALID,916.387,VALID,0,VALID,100,VALID,0.0169808,VALID,19.5418,VALID,347,VALID,0.417969,
2005-03-30, 03:30:00,VALID,916.373,VALID,0,VALID,100,VALID,0,VALID,19.5395,VALID,13,VALID,0.411519,
2005-03-30, 03:31:00,VALID,916.368,VALID,0,VALID,100,VALID,0.0509425,VALID,19.5028,VALID,13,VALID,0.37282,
2005-03-30, 03:32:00,VALID,916.373,VALID,0,VALID,100,VALID,0.0509425,VALID,19.4871,VALID,342,VALID,0.568004,
2005-03-30, 03:33:00,VALID,916.371,VALID,0,VALID,100,VALID,0.0169808,VALID,19.4846,VALID,339,VALID,0.337573,
2005-03-30, 03:34:00,VALID,916.374,VALID,0,VALID,100,VALID,0.0169808,VALID,19.4844,VALID,347,VALID,0.457317,
2005-03-30, 03:35:00,VALID,916.376,VALID,0,VALID,100,VALID,0,VALID,19.4715,VALID,6,VALID,0.642805,
2005-03-30, 03:36:00,VALID,916.364,VALID,0,VALID,100,VALID,0.0169808,VALID,19.4648,VALID,10,VALID,0.261209,
2005-03-30, 03:37:00,VALID,916.379,VALID,0,VALID,100,VALID,0,VALID,19.4556,VALID,2,VALID,0.252096,
2005-03-30, 03:38:00,VALID,916.368,VALID,0,VALID,100,VALID,0.0169808,VALID,19.4526,VALID,2,VALID,0.133903,
2005-03-30, 03:39:00,VALID,916.369,VALID,0,VALID,100,VALID,0.0339617,VALID,19.4514,VALID,2,VALID,0,
2005-03-30, 03:40:00,VALID,916.358,VALID,0,VALID,100,VALID,-0.0169808,VALID,19.468,VALID,2,VALID,0,
2005-03-30, 03:41:00,VALID,916.351,VALID,0,VALID,100,VALID,0.0339617,VALID,19.4549,VALID,2,VALID,0.00266768,
2005-03-30, 03:42:00,VALID,916.339,VALID,0,VALID,100,VALID,0,VALID,19.4777,VALID,2,VALID,0.0223722,